Location: Blue Mountain Vista Observatory
(40.6992°N, 75.9422°W)
Time: 08:58:42
(UTC-05:00)

Daily predictions for brighter satellites

Satellite Brightness Start Highest point End
(mag) Time Altitude Azimuth Time Altitude Azimuth Time Altitude Azimuth
Cosmos 990 Rocket 4.0 16:57:38 10° SSW 17:02:47 88° ESE 17:07:59 10° NNE
COSMOS 2441 4.5 16:59:27 10° SSE 17:04:22 89° ENE 17:09:18 10° NNW
Cosmos 1607 4.5 16:59:02 10° NW 17:05:31 71° WSW 17:11:52 10° SSE
Meteor 1-28 Rocket 4.1 17:02:35 10° NE 17:05:56 30° E 17:09:16 10° SSE
Cosmos 1455 Rocket 3.7 17:02:05 10° N 17:06:08 34° ENE 17:10:06 10° SE
SJ-12 3.9 17:02:22 10° SSE 17:06:30 86° ENE 17:10:37 10° N
Cosmos 1697 Rocket 4.2 17:06:43 10° SE 17:10:13 17° E 17:13:43 10° ENE
Cosmos 1544 Rocket 4.0 17:06:11 10° N 17:10:18 40° ENE 17:14:22 10° SSE
AQUARIUS 4.4 17:06:18 10° SE 17:10:35 46° ENE 17:14:53 10° N
Cosmos 1743 3.0 17:09:58 10° N 17:13:44 48° E 17:17:29 10° SSE
Cosmos 1428 Rocket 4.5 17:07:59 10° N 17:14:10 70° E 17:20:15 10° SSE
SJ-7 4.4 17:10:36 10° SSE 17:14:32 59° ENE 17:18:27 10° N
ATLAS 2AS CENTAUR R/B 3.1 17:07:23 10° SSW 17:15:07 87° ESE 17:23:17 10° NE
YAOGAN 1 3.5 17:11:52 10° SE 17:15:31 27° ENE 17:19:11 10° N
CZ-2C R/B 4.4 17:12:28 10° NNE 17:16:48 36° E 17:21:09 10° SSE
ATLAS 3B R/B 2.7 17:12:05 10° NNW 17:18:36 52° NE 17:24:55 10° SE
Cosmos 2082 4.3 17:14:48 10° N 17:19:55 35° ENE 17:25:01 10° ESE
USA 116 4.2 17:17:48 10° NE 17:20:34 27° E 17:23:15 10° SSE
SMAP 3.0 17:21:18 10° SSE 17:25:55 70° ENE 17:30:33 10° N
USA 161 4.0 17:27:04 10° NNW 17:29:28 23° WNW 17:31:55 10° SW
Cosmos 158 Rocket 4.1 17:24:53 10° N 17:29:48 46° ENE 17:34:33 10° SE
USA 215 3.3 17:23:16 10° SE 17:29:49 88° SW 17:36:24 10° NW
Cosmos 2279 Rocket 4.1 17:23:56 10° S 17:30:12 84° W 17:36:31 10° N
COSMO-SKYMED 1 3.5 17:27:15 10° NE 17:31:01 28° E 17:34:45 10° SSE
Cosmos 2227 Rocket 2.3 17:27:07 10° NNW 17:32:42 55° ENE 17:38:12 10° SE
Landsat 4 4.5 17:29:50 10° NNE 17:33:19 32° E 17:36:44 10° SSE
NOSS 3-4 (A) 4.4 17:31:37 10° S 17:36:53 30° ESE 17:41:06 15° ENE
NOSS 3-4 (C) 4.4 17:31:45 10° S 17:36:59 29° ESE 17:41:10 15° ENE
Cosmos 2219 4.2 17:32:34 10° NNW 17:38:01 51° WSW 17:43:26 10° S
SJ 16-02 1.7 17:34:12 10° S 17:38:21 44° ESE 17:42:24 11° NNE
Cosmos 1975 Rocket 4.3 17:34:08 10° SSW 17:38:25 44° WNW 17:42:43 10° N
ALOS 3.1 17:35:19 10° SE 17:39:15 28° ENE 17:43:11 10° N
CORIOLIS 4.1 17:35:28 10° SSE 17:40:53 83° ENE 17:46:19 10° NNW
ERS-2 3.1 17:38:22 10° SE 17:41:27 26° ENE 17:44:34 10° NNE
NOSS 8 (A) 4.4 17:39:12 10° SSW 17:42:30 59° ESE 17:44:39 19° NE
Cosmos 1271 Rocket 2.9 17:39:22 10° NNW 17:43:10 75° W 17:47:00 10° S
Meteor 2-9 Rocket 4.1 17:39:34 10° N 17:45:02 62° ENE 17:50:20 10° SSE
Atlas Centaur 2 3.9 17:43:58 10° WSW 17:48:14 23° SSW 17:51:49 10° SE
SPOT 3 Rocket 4.0 17:45:30 10° SE 17:50:14 38° ENE 17:54:59 10° N
Cosmos 1980 Rocket 3.4 17:46:24 10° SSE 17:50:35 22° E 17:52:13 19° ENE
IRS-1A Rocket 4.2 17:45:05 10° SSE 17:50:39 76° ENE 17:56:12 10° N
Cosmos 1484 Rocket 4.1 17:52:28 10° S 17:56:18 44° W 18:00:10 10° NNW
CENTAUR R/B 3.9 17:52:56 10° NNW 17:59:23 28° NE 18:02:54 21° ENE
Cosmos 2297 Rocket 2.1 17:53:50 10° NNW 17:59:31 77° ENE 18:05:10 10° SSE
Cosmos 724 4.2 17:54:40 10° NNW 18:00:27 66° ENE 18:06:13 10° SE
Cosmos 1025 Rocket 3.5 18:00:25 10° SSE 18:04:21 35° E 18:05:43 28° NE
Ariane Rocket 4.1 18:00:33 10° S 18:05:24 47° W 18:10:17 10° NNW
Cosmos 1666 4.1 18:02:20 10° NNW 18:05:51 39° W 18:09:20 10° SSW
Cosmos 1536 Rocket 3.7 18:02:12 10° SSW 18:06:32 73° W 18:10:53 10° N
Abrixas rocket 3.8 18:04:43 10° WNW 18:07:20 22° N 18:07:55 21° N
Cosmos 1656 3.6 18:04:26 10° SSW 18:10:01 85° ESE 18:14:33 16° NNE
ISS -2.8 18:08:36 10° WNW 18:11:46 45° SW 18:14:26 13° SSE
Cosmos 1269 Rocket 3.9 18:08:48 10° NNW 18:14:08 72° ENE 18:19:24 10° SSE
PSLV R/B 2.8 18:14:04 10° W 18:17:13 90° W 18:17:28 74° E
Cosmos 1125 Rocket 3.7 18:12:31 10° SSW 18:17:48 71° WNW 18:22:43 12° NNE
Meteor 2-4 Rocket 4.0 18:13:08 10° SSW 18:18:33 64° WNW 18:23:54 10° N
SKYMED 2 3.6 18:15:01 11° N 18:19:13 84° WNW 18:23:33 10° SSW
Cosmos 2084 3.7 18:19:38 10° SSW 18:23:38 43° ESE 18:23:42 43° ESE
USA 238 DEB 4.2 18:16:49 10° NW 18:23:51 64° WSW 18:30:55 10° SSE
USA 238 4.2 18:16:55 10° NW 18:23:57 65° WSW 18:31:02 10° SSE
CZ-4 R/B 3.2 18:21:08 10° SSW 18:24:35 31° W 18:28:07 10° NNW
Cosmos 1048 Rocket 4.3 18:21:45 10° NNW 18:27:07 71° WSW 18:32:26 10° S
Cosmos 2266 Rocket 4.4 18:25:29 10° NNW 18:31:28 62° W 18:37:32 10° S
Cosmos 2369 4.3 18:26:42 10° SW 18:32:16 56° WNW 18:36:54 15° NNE
Cosmos 2278 4.2 18:27:40 10° SW 18:33:14 58° WNW 18:37:45 16° NNE
Gblst 52 Del rocket 4.4 18:27:52 10° NW 18:33:27 55° NNE 18:35:04 42° ENE
Cosmos 2360 4.4 18:29:51 10° S 18:35:17 47° ESE 18:36:00 45° E
Hubble Space Telescope 3.6 18:37:11 10° SSW 18:38:03 11° SSW 18:38:54 10° S
NOAA 12 4.1 18:33:01 10° SSE 18:38:18 83° WSW 18:43:36 10° NNW
Meteor 1-15 Rocket 4.4 18:34:06 10° NNW 18:40:02 79° W 18:45:55 10° S
SL-24 R/B - RUBIN 2 4.3 18:34:36 10° SSW 18:40:48 64° ESE 18:42:12 49° ENE
FENGYUN 3A 3.7 18:36:01 10° S 18:41:23 77° WSW 18:46:47 10° NNW
Okean 2 3.4 18:40:22 10° SSW 18:44:27 75° W 18:45:16 54° NNW
EO 1 Del DPAF 4.3 18:45:04 26° NNW 18:46:47 44° WNW 18:50:25 10° SW
DELTA 2 R/B (1) 3.6 18:42:22 10° W 18:47:56 77° S 18:49:04 57° ESE
S3M 4.2 18:45:05 10° SSE 18:50:04 46° ESE 18:50:04 46° ESE
NOSS 3-2 (A) 4.2 18:45:50 10° NW 18:53:27 73° WSW 19:01:40 10° SSE
Cosmos 1697 Rocket 3.0 18:47:57 10° SSW 18:53:34 65° WNW 18:56:12 32° N
NOSS 3-2 (C) 4.0 18:52:50 10° NW 19:00:28 84° WSW 19:08:45 10° SSE
Gbstr 26 Del rocket 4.4 18:52:37 10° WSW 19:00:36 71° NNW 19:02:48 48° NE
ATLAS 3B R/B 4.3 19:03:20 10° NW 19:08:55 30° WSW 19:14:24 10° S
FengYun 1-2 T 4.2 19:04:14 10° SSE 19:09:50 83° WSW 19:15:32 10° NNW
ALOS 4.1 19:12:31 10° SSW 19:16:35 29° W 19:20:39 10° NW
SJ 16-02 3.9 19:14:15 10° WSW 19:17:11 17° WNW 19:19:26 12° NNW
Cosmos 1553 Rocket 4.0 19:18:39 10° S 19:25:04 79° W 19:26:05 64° NNW
NOSS 3-4 (A) 4.1 19:21:24 10° SW 19:27:26 50° NW 19:28:35 45° NNW
NOSS 3-4 (C) 4.1 19:21:29 10° SW 19:27:31 50° NW 19:28:39 45° NNW
SL-08 R/B 4.5 19:22:14 10° N 19:28:31 77° W 19:34:42 10° S
Cosmos 1980 Rocket 2.8 19:28:38 10° SW 19:34:03 52° WNW 19:34:03 52° WNW
CENTAUR R/B 3.1 19:43:07 10° NW 19:50:09 73° NNW 19:50:09 73° NNW
Cosmos 2344 4.3 19:45:14 10° SSW 19:49:48 39° S 19:49:48 39° S
